| time (UTC) | temp F | wind direction | speed MPH | gust MPH | rain 1hr in | rain 24hr in | rain mn in | humidity % | barometer mb |
| 20260507114525 | 47 | 13 | 0.0 | 2.0 | 0.11 | 0.66 | 0.56 | 91 | 1021.7 |
| 20260507113520 | 47 | 322 | 0.0 | 4.0 | 0.09 | 0.63 | 0.52 | 90 | 1021.5 |
| 20260507112612 | 47 | 311 | 0.0 | 4.0 | 0.12 | 0.63 | 0.52 | 91 | 1021.5 |
| 20260507111609 | 47 | 7 | 0.0 | 2.0 | 0.11 | 0.60 | 0.50 | 91 | 1021.4 |
| 20260507110559 | 47 | 315 | 0.0 | 2.0 | 0.11 | 0.59 | 0.48 | 91 | 1021.3 |
| 20260507105556 | 47 | 338 | 0.0 | 2.0 | 0.08 | 0.56 | 0.45 | 91 | 1021.3 |
| 20260507104549 | 47 | 303 | 1.0 | 4.0 | 0.11 | 0.56 | 0.45 | 91 | 1021.1 |
| 20260507103545 | 47 | 0 | 1.0 | 4.0 | 0.08 | 0.53 | 0.43 | 91 | 1020.9 |
| 20260507102543 | 46 | 347 | 1.0 | 4.0 | 0.08 | 0.51 | 0.40 | 90 | 1020.9 |
| 20260507101535 | 47 | 126 | 1.0 | 4.0 | 0.07 | 0.50 | 0.39 | 91 | 1020.8 |
| 20260507100531 | 47 | 113 | 0.0 | 2.0 | 0.07 | 0.48 | 0.38 | 91 | 1020.7 |
| 20260507095524 | 47 | 305 | 0.0 | 2.0 | 0.07 | 0.47 | 0.37 | 91 | 1020.6 |
| 20260507094520 | 47 | 51 | 1.0 | 4.0 | 0.06 | 0.45 | 0.34 | 91 | 1020.4 |
| 20260507093614 | 46 | 354 | 1.0 | 2.0 | 0.07 | 0.45 | 0.34 | 91 | 1020.4 |
| 20260507092609 | 46 | 344 | 0.0 | 2.0 | 0.06 | 0.43 | 0.32 | 91 | 1020.2 |
| 20260507091608 | 46 | 93 | 1.0 | 4.0 | 0.06 | 0.43 | 0.32 | 91 | 1020.1 |
| 20260507090558 | 46 | 87 | 1.0 | 4.0 | 0.06 | 0.41 | 0.31 | 91 | 1019.9 |
| 20260507085555 | 46 | 92 | 1.0 | 4.0 | 0.05 | 0.40 | 0.30 | 91 | 1019.9 |
| 20260507084547 | 46 | 103 | 2.0 | 6.0 | 0.05 | 0.39 | 0.28 | 91 | 1019.7 |
| 20260507083545 | 46 | 29 | 1.0 | 7.0 | 0.06 | 0.38 | 0.27 | 91 | 1019.5 |
| 20260507082535 | 46 | 76 | 1.0 | 2.0 | 0.07 | 0.37 | 0.26 | 92 | 1019.4 |
| 20260507081534 | 46 | 0.0 | 2.0 | 0.08 | 0.37 | 0.26 | 92 | 1019.3 | |
| 20260507080526 | 46 | 325 | 1.0 | 4.0 | 0.09 | 0.35 | 0.25 | 92 | 1019.2 |
| 20260507075522 | 46 | 351 | 1.0 | 4.0 | 0.12 | 0.35 | 0.25 | 92 | 1019.1 |
| 20260507074519 | 46 | 89 | 0.0 | 4.0 | 0.14 | 0.34 | 0.24 | 92 | 1019.1 |
| 20260507073611 | 46 | 45 | 0.0 | 2.0 | 0.15 | 0.32 | 0.21 | 93 | 1019.0 |
| 20260507072610 | 46 | 29 | 1.0 | 4.0 | 0.14 | 0.30 | 0.19 | 92 | 1018.9 |
| 20260507071600 | 46 | 336 | 0.0 | 2.0 | 0.15 | 0.28 | 0.18 | 92 | 1018.9 |
| 20260507070558 | 46 | 0.0 | 2.0 | 0.14 | 0.26 | 0.15 | 92 | 1018.7 | |
| 20260507065548 | 46 | 0 | 0.0 | 2.0 | 0.13 | 0.24 | 0.13 | 92 | 1018.6 |
| 20260507064547 | 46 | 20 | 0.0 | 2.0 | 0.09 | 0.20 | 0.09 | 92 | 1018.5 |
| 20260507063544 | 46 | 322 | 1.0 | 4.0 | 0.06 | 0.17 | 0.06 | 92 | 1018.3 |
| 20260507062535 | 46 | 349 | 0.0 | 2.0 | 0.05 | 0.15 | 0.05 | 92 | 1018.0 |
| 20260507061532 | 46 | 355 | 2.0 | 4.0 | 0.02 | 0.13 | 0.02 | 91 | 1017.9 |
| 20260507060524 | 46 | 346 | 1.0 | 2.0 | 0.01 | 0.12 | 0.01 | 91 | 1017.7 |
| 20260507055522 | 46 | 30 | 1.0 | 4.0 | 0.00 | 0.11 | 0.00 | 91 | 1017.6 |
| 20260507054612 | 47 | 135 | 2.0 | 8.0 | 0.00 | 0.11 | 0.00 | 91 | 1017.3 |
| 20260507053610 | 47 | 117 | 2.0 | 4.0 | 0.00 | 0.11 | 0.00 | 90 | 1017.2 |
| 20260507052607 | 48 | 307 | 2.0 | 7.0 | 0.00 | 0.11 | 0.00 | 90 | 1017.0 |
| 20260507051558 | 48 | 87 | 1.0 | 4.0 | 0.00 | 0.11 | 0.00 | 89 | 1016.9 |
| 20260507050556 | 49 | 89 | 1.0 | 4.0 | 0.00 | 0.11 | 0.00 | 90 | 1016.7 |
| 20260507045549 | 49 | 78 | 2.0 | 6.0 | 0.00 | 0.11 | 0.00 | 90 | 1016.6 |
| 20260507044547 | 49 | 90 | 0.0 | 2.0 | 0.00 | 0.11 | 0.00 | 90 | 1016.4 |
| 20260507043538 | 49 | 90 | 1.0 | 4.0 | 0.00 | 0.11 | 0.00 | 90 | 1016.4 |
| 20260507042533 | 49 | 55 | 0.0 | 4.0 | 0.00 | 0.11 | 0.00 | 90 | 1016.2 |
| 20260507041532 | 49 | 97 | 1.0 | 4.0 | 0.00 | 0.11 | 0.00 | 90 | 1016.2 |
| 20260507040522 | 49 | 100 | 1.0 | 4.0 | 0.00 | 0.11 | 0.00 | 90 | 1016.0 |
| 20260507035520 | 49 | 142 | 1.0 | 2.0 | 0.00 | 0.11 | 0.00 | 90 | 1016.1 |
| 20260507034613 | 49 | 81 | 1.0 | 7.0 | 0.00 | 0.11 | 0.00 | 90 | 1015.9 |
| 20260507033610 | 49 | 116 | 2.0 | 4.0 | 0.00 | 0.11 | 0.00 | 90 | 1015.9 |
| 20260507032600 | 49 | 113 | 0.0 | 4.0 | 0.00 | 0.11 | 0.00 | 90 | 1015.9 |
| 20260507031557 | 50 | 58 | 1.0 | 4.0 | 0.00 | 0.11 | 0.00 | 90 | 1015.7 |
| 20260507030556 | 50 | 90 | 2.0 | 6.0 | 0.00 | 0.11 | 0.00 | 90 | 1015.8 |
| 20260507025546 | 50 | 71 | 2.0 | 4.0 | 0.00 | 0.11 | 0.00 | 89 | 1015.7 |
| 20260507024543 | 50 | 97 | 2.0 | 4.0 | 0.00 | 0.11 | 0.00 | 89 | 1015.7 |
| 20260507023536 | 50 | 106 | 3.0 | 6.0 | 0.00 | 0.11 | 0.00 | 90 | 1015.7 |
| 20260507022532 | 50 | 68 | 1.0 | 6.0 | 0.00 | 0.11 | 0.00 | 91 | 1015.7 |
| 20260507021524 | 50 | 108 | 1.0 | 2.0 | 0.00 | 0.11 | 0.00 | 91 | 1015.8 |
| 20260507020523 | 50 | 90 | 0.0 | 2.0 | 0.00 | 0.11 | 0.00 | 91 | 1015.8 |
| 20260507015518 | 51 | 97 | 1.0 | 2.0 | 0.00 | 0.11 | 0.00 | 90 | 1015.7 |
| 20260507014610 | 51 | 102 | 1.0 | 2.0 | 0.00 | 0.11 | 0.00 | 90 | 1015.7 |
| 20260507013608 | 51 | 43 | 1.0 | 2.0 | 0.00 | 0.11 | 0.00 | 90 | 1015.5 |
| 20260507012559 | 51 | 61 | 1.0 | 4.0 | 0.00 | 0.11 | 0.00 | 90 | 1015.6 |
| 20260507011556 | 51 | 68 | 1.0 | 4.0 | 0.00 | 0.11 | 0.00 | 90 | 1015.5 |
| 20260507010550 | 51 | 70 | 1.0 | 4.0 | 0.00 | 0.11 | 0.00 | 90 | 1015.4 |
| 20260507005545 | 51 | 85 | 2.0 | 7.0 | 0.00 | 0.11 | 0.00 | 88 | 1015.4 |
| 20260507004542 | 51 | 80 | 1.0 | 4.0 | 0.00 | 0.11 | 0.00 | 88 | 1015.5 |
| 20260507003535 | 51 | 79 | 1.0 | 2.0 | 0.00 | 0.11 | 0.00 | 89 | 1015.3 |
| 20260507002531 | 52 | 83 | 1.0 | 4.0 | 0.00 | 0.11 | 0.00 | 89 | 1015.2 |
| 20260507001524 | 52 | 65 | 1.0 | 2.0 | 0.00 | 0.11 | 0.00 | 90 | 1015.2 |
| 20260507000520 | 52 | 68 | 1.0 | 2.0 | 0.00 | 0.11 | 0.00 | 89 | 1015.2 |
| 20260506235612 | 52 | 79 | 0.0 | 2.0 | 0.00 | 0.11 | 0.00 | 89 | 1015.1 |
| 20260506234609 | 52 | 83 | 1.0 | 4.0 | 0.00 | 0.11 | 0.00 | 89 | 1015.1 |
| 20260506233606 | 52 | 72 | 1.0 | 4.0 | 0.00 | 0.11 | 0.00 | 89 | 1015.1 |
| 20260506232558 | 52 | 80 | 1.0 | 4.0 | 0.00 | 0.11 | 0.00 | 89 | 1014.9 |
| 20260506231555 | 52 | 98 | 2.0 | 6.0 | 0.00 | 0.11 | 0.00 | 88 | 1015.0 |
| 20260506230549 | 52 | 68 | 0.0 | 2.0 | 0.00 | 0.11 | 0.00 | 89 | 1015.1 |
| 20260506225546 | 52 | 86 | 1.0 | 2.0 | 0.00 | 0.11 | 0.00 | 90 | 1015.1 |
| 20260506224537 | 52 | 75 | 1.0 | 2.0 | 0.00 | 0.11 | 0.00 | 91 | 1014.9 |
| 20260506223533 | 52 | 77 | 1.0 | 2.0 | 0.00 | 0.11 | 0.00 | 92 | 1014.7 |
| 20260506222526 | 51 | 0.0 | 0.0 | 0.00 | 0.11 | 0.00 | 92 | 1014.7 | |
| 20260506221522 | 51 | 0.0 | 0.0 | 0.00 | 0.11 | 0.00 | 92 | 1014.6 | |
| 20260506220519 | 51 | 0.0 | 0.0 | 0.00 | 0.11 | 0.00 | 91 | 1014.4 | |
| 20260506215612 | 52 | 122 | 0.0 | 2.0 | 0.00 | 0.11 | 0.11 | 91 | 1014.4 |
| 20260506214609 | 52 | 0.0 | 2.0 | 0.00 | 0.11 | 0.11 | 91 | 1014.5 | |
| 20260506213559 | 52 | 70 | 1.0 | 2.0 | 0.00 | 0.11 | 0.11 | 91 | 1014.4 |
| 20260506212557 | 52 | 90 | 1.0 | 4.0 | 0.00 | 0.11 | 0.11 | 91 | 1014.2 |
| 20260506211548 | 52 | 0.0 | 0.0 | 0.00 | 0.11 | 0.11 | 91 | 1014.2 | |
| 20260506210545 | 52 | 73 | 1.0 | 4.0 | 0.00 | 0.11 | 0.11 | 90 | 1014.1 |
| 20260506205543 | 53 | 88 | 1.0 | 4.0 | 0.00 | 0.11 | 0.11 | 90 | 1014.1 |
| 20260506204535 | 53 | 90 | 0.0 | 4.0 | 0.00 | 0.11 | 0.11 | 90 | 1014.2 |
| 20260506203532 | 53 | 113 | 0.0 | 2.0 | 0.00 | 0.11 | 0.11 | 90 | 1014.2 |
| 20260506202525 | 53 | 84 | 1.0 | 4.0 | 0.00 | 0.11 | 0.11 | 89 | 1014.2 |
| 20260506201520 | 54 | 0.0 | 0.0 | 0.00 | 0.11 | 0.11 | 90 | 1014.2 | |
| 20260506200612 | 54 | 68 | 0.0 | 4.0 | 0.00 | 0.11 | 0.11 | 90 | 1014.3 |
| 20260506195609 | 54 | 338 | 0.0 | 2.0 | 0.00 | 0.11 | 0.11 | 89 | 1014.2 |
| 20260506194608 | 54 | 92 | 1.0 | 4.0 | 0.00 | 0.11 | 0.11 | 89 | 1014.0 |
| 20260506193558 | 54 | 80 | 1.0 | 4.0 | 0.00 | 0.11 | 0.11 | 89 | 1014.0 |
| 20260506192556 | 54 | 119 | 0.0 | 4.0 | 0.00 | 0.11 | 0.11 | 90 | 1013.9 |
| 20260506191547 | 55 | 45 | 0.0 | 2.0 | 0.00 | 0.11 | 0.11 | 90 | 1013.8 |
| 20260506190546 | 55 | 81 | 2.0 | 4.0 | 0.01 | 0.11 | 0.11 | 90 | 1013.4 |
| 20260506185537 | 55 | 47 | 1.0 | 4.0 | 0.01 | 0.11 | 0.11 | 90 | 1013.2 |
| 20260506184534 | 55 | 84 | 1.0 | 4.0 | 0.02 | 0.11 | 0.11 | 90 | 1012.9 |
| 20260506183532 | 55 | 82 | 2.0 | 4.0 | 0.05 | 0.11 | 0.11 | 89 | 1012.8 |
| 20260506182524 | 55 | 83 | 0.0 | 2.0 | 0.07 | 0.11 | 0.11 | 90 | 1012.7 |
| 20260506181521 | 55 | 146 | 0.0 | 2.0 | 0.11 | 0.11 | 0.11 | 90 | 1012.8 |
| 20260506180542 | 56 | 0.0 | 0.0 | 0.09 | 0.09 | 0.09 | 90 | 1012.8 | |
| 20260506175534 | 56 | 68 | 0.0 | 2.0 | 0.09 | 0.09 | 0.09 | 90 | 1012.7 |
| 20260506174531 | 56 | 161 | 1.0 | 4.0 | 0.08 | 0.08 | 0.08 | 90 | 1012.5 |
| 20260506173523 | 57 | 351 | 1.0 | 2.0 | 0.06 | 0.06 | 0.06 | 88 | 1012.7 |
| 20260506172520 | 57 | 0 | 0.0 | 4.0 | 0.04 | 0.04 | 0.04 | 86 | 1012.8 |
| 20260506171614 | 58 | 294 | 0.0 | 2.0 | 0.00 | 0.00 | 0.00 | 85 | 1012.8 |
| 20260506170609 | 58 | 53 | 0.0 | 4.0 | 0.00 | 0.00 | 0.00 | 84 | 1012.8 |
| 20260506165606 | 58 | 113 | 0.0 | 2.0 | 0.00 | 0.00 | 0.00 | 84 | 1012.6 |
| 20260506164558 | 59 | 281 | 0.0 | 2.0 | 0.00 | 0.00 | 0.00 | 83 | 1012.4 |
| 20260506163555 | 59 | 356 | 2.0 | 4.0 | 0.00 | 0.00 | 0.00 | 81 | 1012.4 |
| 20260506162544 | 60 | 25 | 1.0 | 2.0 | 0.00 | 0.00 | 0.00 | 80 | 1012.4 |
| 20260506161536 | 61 | 341 | 1.0 | 2.0 | 0.00 | 0.00 | 0.00 | 78 | 1012.3 |
| 20260506160524 | 61 | 218 | 1.0 | 2.0 | 0.00 | 0.00 | 0.00 | 78 | 1012.1 |
| 20260506155520 | 61 | 309 | 1.0 | 4.0 | 0.00 | 0.00 | 0.00 | 76 | 1012.2 |
| 20260506154611 | 62 | 19 | 1.0 | 2.0 | 0.00 | 0.00 | 0.00 | 76 | 1012.1 |
| 20260506153610 | 63 | 106 | 1.0 | 6.0 | 0.00 | 0.00 | 0.00 | 75 | 1012.0 |
| 20260506152600 | 64 | 303 | 1.0 | 4.0 | 0.00 | 0.00 | 0.00 | 74 | 1012.1 |
| 20260506151557 | 64 | 344 | 2.0 | 4.0 | 0.00 | 0.00 | 0.00 | 74 | 1012.1 |
| 20260506150554 | 64 | 13 | 1.0 | 4.0 | 0.00 | 0.00 | 0.00 | 73 | 1012.0 |
| 20260506145546 | 63 | 310 | 1.0 | 4.0 | 0.00 | 0.00 | 0.00 | 74 | 1012.1 |
| 20260506144543 | 63 | 19 | 1.0 | 4.0 | 0.00 | 0.00 | 0.00 | 74 | 1012.2 |
| 20260506143056 | 65 | 209 | 1.0 | 4.0 | 0.00 | 0.00 | 0.00 | 73 | 1012.3 |
| 20260506142046 | 64 | 331 | 2.0 | 4.0 | 0.00 | 0.00 | 0.00 | 74 | 1012.3 |
| 20260506141043 | 64 | 0 | 1.0 | 2.0 | 0.00 | 0.00 | 0.00 | 71 | 1012.5 |